GFSSW_prec_pwat_303.txt.gz
Precipitable_Water
0.71 0.69 0.66 0.62 0.56 0.55 0.54 0.53 0.52 0.51 0.49 0.49 0.49 0.47 0.45 0.46 0.43 0.33 0.25 0.30 0.39 0.57 0.64 0.57 0.54 0.49 0.44 0.33 0.39 0.45 0.24 0.20 0.24 0.25 0.27 0.33 0.28 0.29 0.29 0.25 0.26 0.26 0.25 0.26 0.28
0.72 0.71 0.68 0.65 0.60 0.56 0.55 0.54 0.53 0.52 0.50 0.49 0.49 0.46 0.46 0.48 0.34 0.29 0.36 0.39 0.52 0.59 0.54 0.47 0.39 0.42 0.32 0.29 0.27 0.28 0.24 0.22 0.30 0.32 0.27 0.27 0.25 0.25 0.23 0.21 0.20 0.22 0.25 0.26 0.26
0.73 0.72 0.70 0.69 0.66 0.60 0.57 0.55 0.54 0.53 0.50 0.49 0.48 0.45 0.46 0.51 0.30 0.28 0.40 0.39 0.52 0.58 0.56 0.50 0.45 0.38 0.30 0.30 0.25 0.21 0.17 0.25 0.25 0.27 0.25 0.23 0.23 0.24 0.21 0.17 0.20 0.19 0.21 0.22 0.22
0.75 0.74 0.73 0.70 0.70 0.67 0.60 0.57 0.54 0.53 0.50 0.49 0.47 0.45 0.50 0.43 0.20 0.32 0.41 0.40 0.47 0.53 0.48 0.42 0.39 0.32 0.27 0.23 0.27 0.18 0.23 0.23 0.22 0.24 0.22 0.20 0.22 0.19 0.20 0.20 0.22 0.23 0.22 0.21 0.20
0.76 0.75 0.75 0.74 0.71 0.68 0.66 0.61 0.56 0.53 0.50 0.49 0.47 0.45 0.42 0.33 0.28 0.39 0.41 0.40 0.41 0.42 0.38 0.37 0.31 0.29 0.23 0.25 0.24 0.20 0.20 0.21 0.23 0.23 0.23 0.23 0.19 0.18 0.16 0.21 0.23 0.22 0.21 0.20 0.19
0.74 0.74 0.73 0.72 0.71 0.69 0.67 0.63 0.60 0.56 0.52 0.50 0.47 0.47 0.36 0.24 0.38 0.39 0.39 0.37 0.36 0.38 0.37 0.37 0.32 0.30 0.25 0.23 0.20 0.24 0.23 0.21 0.22 0.21 0.22 0.18 0.18 0.18 0.16 0.20 0.19 0.19 0.18 0.19 0.18
0.74 0.73 0.72 0.70 0.68 0.66 0.64 0.61 0.60 0.57 0.56 0.52 0.46 0.40 0.30 0.27 0.38 0.36 0.38 0.36 0.39 0.37 0.32 0.36 0.35 0.26 0.23 0.18 0.27 0.25 0.21 0.22 0.23 0.21 0.19 0.20 0.13 0.11 0.17 0.18 0.17 0.17 0.17 0.18 0.18
0.75 0.73 0.71 0.69 0.67 0.65 0.62 0.58 0.57 0.56 0.54 0.50 0.44 0.35 0.25 0.36 0.38 0.33 0.35 0.34 0.37 0.37 0.35 0.36 0.33 0.25 0.21 0.23 0.25 0.23 0.22 0.14 0.22 0.23 0.22 0.19 0.08 0.12 0.16 0.16 0.15 0.16 0.16 0.16 0.17
0.78 0.74 0.71 0.68 0.67 0.63 0.60 0.57 0.54 0.53 0.49 0.47 0.36 0.32 0.25 0.35 0.29 0.32 0.35 0.29 0.31 0.34 0.35 0.34 0.27 0.22 0.22 0.18 0.15 0.17 0.11 0.12 0.14 0.22 0.21 0.19 0.11 0.15 0.17 0.16 0.14 0.14 0.16 0.16 0.16
0.84 0.77 0.72 0.68 0.67 0.63 0.60 0.56 0.51 0.45 0.44 0.42 0.35 0.27 0.29 0.25 0.28 0.30 0.34 0.32 0.27 0.28 0.28 0.27 0.25 0.20 0.20 0.16 0.08 0.10 0.11 0.12 0.13 0.17 0.19 0.17 0.14 0.16 0.17 0.15 0.14 0.14 0.15 0.15 0.15
0.85 0.82 0.74 0.69 0.66 0.64 0.54 0.45 0.34 0.30 0.34 0.27 0.27 0.26 0.28 0.31 0.32 0.28 0.31 0.28 0.27 0.25 0.19 0.24 0.17 0.15 0.17 0.18 0.16 0.14 0.11 0.11 0.13 0.18 0.17 0.16 0.15 0.15 0.16 0.16 0.13 0.13 0.13 0.13 0.14
0.81 0.82 0.78 0.71 0.67 0.64 0.55 0.38 0.38 0.38 0.26 0.33 0.30 0.29 0.31 0.30 0.24 0.26 0.31 0.23 0.23 0.18 0.22 0.19 0.14 0.19 0.20 0.19 0.14 0.12 0.10 0.10 0.13 0.16 0.15 0.13 0.12 0.16 0.17 0.15 0.15 0.14 0.13 0.13 0.14
0.69 0.80 0.82 0.71 0.68 0.58 0.49 0.47 0.59 0.50 0.28 0.29 0.30 0.28 0.28 0.29 0.24 0.24 0.27 0.25 0.21 0.18 0.19 0.16 0.18 0.21 0.19 0.17 0.13 0.13 0.11 0.10 0.10 0.12 0.14 0.12 0.10 0.12 0.15 0.17 0.16 0.16 0.16 0.16 0.15
0.66 0.78 0.85 0.72 0.53 0.54 0.47 0.59 0.60 0.50 0.21 0.23 0.28 0.30 0.30 0.30 0.25 0.31 0.32 0.27 0.23 0.18 0.20 0.18 0.22 0.19 0.18 0.16 0.16 0.12 0.16 0.14 0.12 0.10 0.06 0.13 0.05 0.09 0.13 0.13 0.14 0.14 0.15 0.15 0.16
0.67 0.77 0.85 0.74 0.56 0.48 0.54 0.61 0.59 0.42 0.13 0.26 0.29 0.39 0.34 0.28 0.28 0.28 0.35 0.29 0.22 0.21 0.21 0.18 0.19 0.19 0.18 0.18 0.19 0.15 0.18 0.16 0.15 0.13 0.12 0.11 0.09 0.08 0.13 0.11 0.14 0.15 0.16 0.16 0.17
0.69 0.78 0.85 0.71 0.64 0.63 0.68 0.61 0.49 0.24 0.15 0.27 0.31 0.28 0.27 0.29 0.29 0.31 0.29 0.32 0.30 0.24 0.24 0.22 0.26 0.23 0.22 0.22 0.22 0.22 0.19 0.18 0.18 0.16 0.10 0.13 0.13 0.09 0.11 0.14 0.15 0.17 0.17 0.17 0.18
0.71 0.77 0.81 0.77 0.53 0.74 0.63 0.49 0.25 0.20 0.30 0.27 0.26 0.27 0.26 0.25 0.26 0.27 0.25 0.23 0.21 0.17 0.17 0.21 0.22 0.24 0.25 0.21 0.23 0.21 0.16 0.12 0.10 0.10 0.10 0.18 0.13 0.11 0.16 0.17 0.18 0.18 0.18 0.18 0.19
0.75 0.77 0.78 0.75 0.80 0.71 0.54 0.35 0.20 0.25 0.28 0.35 0.31 0.28 0.24 0.26 0.27 0.27 0.26 0.23 0.27 0.24 0.21 0.19 0.17 0.23 0.26 0.23 0.20 0.19 0.18 0.13 0.10 0.11 0.11 0.16 0.11 0.11 0.16 0.18 0.19 0.20 0.20 0.20 0.21
0.77 0.73 0.69 0.73 0.80 0.68 0.43 0.27 0.23 0.26 0.32 0.32 0.32 0.27 0.26 0.28 0.29 0.29 0.28 0.27 0.29 0.29 0.22 0.21 0.21 0.28 0.27 0.26 0.25 0.22 0.19 0.23 0.17 0.18 0.15 0.14 0.15 0.16 0.18 0.19 0.21 0.21 0.20 0.21 0.23
0.63 0.63 0.62 0.80 0.78 0.54 0.36 0.28 0.29 0.34 0.36 0.35 0.27 0.31 0.27 0.30 0.29 0.30 0.30 0.33 0.32 0.35 0.34 0.28 0.22 0.28 0.29 0.30 0.29 0.27 0.27 0.20 0.20 0.14 0.13 0.15 0.15 0.14 0.17 0.17 0.19 0.20 0.20 0.23 0.25
0.64 0.48 0.67 0.78 0.64 0.45 0.30 0.30 0.32 0.39 0.38 0.33 0.31 0.31 0.32 0.31 0.32 0.31 0.31 0.34 0.36 0.36 0.37 0.34 0.29 0.27 0.30 0.28 0.27 0.27 0.25 0.25 0.24 0.22 0.17 0.16 0.16 0.20 0.19 0.19 0.19 0.21 0.25 0.26 0.27
0.60 0.37 0.71 0.69 0.40 0.41 0.34 0.36 0.39 0.37 0.40 0.37 0.36 0.34 0.32 0.34 0.34 0.34 0.34 0.35 0.40 0.39 0.34 0.37 0.34 0.28 0.29 0.34 0.34 0.31 0.29 0.28 0.24 0.22 0.25 0.23 0.21 0.24 0.23 0.24 0.23 0.24 0.26 0.28 0.31
0.50 0.50 0.73 0.62 0.32 0.34 0.39 0.38 0.38 0.37 0.37 0.37 0.35 0.37 0.37 0.34 0.31 0.36 0.38 0.43 0.43 0.40 0.37 0.38 0.33 0.29 0.29 0.32 0.34 0.32 0.33 0.32 0.31 0.30 0.27 0.23 0.24 0.27 0.28 0.26 0.27 0.27 0.28 0.31 0.32
0.55 0.39 0.57 0.58 0.52 0.39 0.36 0.35 0.34 0.41 0.39 0.40 0.38 0.40 0.37 0.35 0.37 0.34 0.37 0.42 0.45 0.43 0.43 0.41 0.35 0.31 0.27 0.29 0.33 0.33 0.35 0.36 0.34 0.29 0.28 0.29 0.29 0.31 0.30 0.29 0.29 0.30 0.32 0.33 0.32
0.61 0.45 0.56 0.44 0.45 0.45 0.42 0.38 0.35 0.33 0.40 0.41 0.38 0.39 0.37 0.33 0.34 0.35 0.38 0.40 0.43 0.45 0.42 0.39 0.33 0.35 0.36 0.35 0.36 0.37 0.38 0.38 0.36 0.35 0.31 0.32 0.32 0.34 0.34 0.34 0.33 0.33 0.33 0.33 0.32
0.58 0.52 0.58 0.54 0.55 0.48 0.45 0.40 0.37 0.38 0.38 0.36 0.36 0.38 0.38 0.35 0.35 0.33 0.37 0.38 0.38 0.44 0.41 0.41 0.34 0.37 0.36 0.38 0.37 0.35 0.40 0.39 0.40 0.40 0.38 0.36 0.35 0.37 0.37 0.36 0.33 0.34 0.34 0.33 0.33
0.80 0.75 0.61 0.53 0.53 0.49 0.47 0.45 0.44 0.45 0.45 0.44 0.42 0.39 0.37 0.39 0.42 0.44 0.45 0.45 0.45 0.43 0.40 0.40 0.39 0.36 0.31 0.38 0.37 0.33 0.38 0.41 0.44 0.46 0.42 0.37 0.40 0.41 0.39 0.37 0.36 0.36 0.35 0.34 0.34

GFSSW_prec_pwat_309.txt.gz
Precipitable_Water
0.70 0.66 0.64 0.61 0.59 0.57 0.55 0.54 0.53 0.51 0.50 0.49 0.48 0.46 0.45 0.46 0.41 0.36 0.26 0.34 0.44 0.55 0.61 0.57 0.57 0.48 0.44 0.34 0.37 0.42 0.31 0.26 0.28 0.27 0.34 0.33 0.28 0.31 0.30 0.25 0.26 0.26 0.25 0.28 0.32
0.72 0.70 0.66 0.63 0.59 0.58 0.56 0.55 0.54 0.52 0.50 0.50 0.48 0.45 0.45 0.46 0.38 0.30 0.34 0.43 0.49 0.59 0.59 0.48 0.42 0.43 0.35 0.30 0.27 0.35 0.33 0.29 0.33 0.35 0.30 0.29 0.28 0.26 0.24 0.23 0.22 0.22 0.25 0.29 0.31
0.73 0.71 0.69 0.65 0.62 0.59 0.57 0.56 0.54 0.52 0.50 0.50 0.48 0.45 0.45 0.47 0.33 0.29 0.39 0.42 0.50 0.59 0.55 0.48 0.45 0.41 0.33 0.29 0.23 0.22 0.28 0.26 0.25 0.28 0.28 0.25 0.22 0.25 0.21 0.21 0.23 0.22 0.21 0.25 0.26
0.74 0.73 0.72 0.69 0.65 0.61 0.59 0.57 0.56 0.53 0.51 0.50 0.47 0.45 0.48 0.45 0.26 0.34 0.39 0.39 0.46 0.51 0.46 0.42 0.40 0.35 0.29 0.25 0.22 0.21 0.21 0.21 0.22 0.22 0.20 0.19 0.24 0.19 0.20 0.24 0.25 0.25 0.25 0.23 0.23
0.75 0.74 0.72 0.70 0.69 0.63 0.60 0.58 0.56 0.54 0.51 0.49 0.46 0.47 0.43 0.33 0.30 0.38 0.38 0.38 0.43 0.42 0.38 0.37 0.32 0.30 0.25 0.25 0.24 0.20 0.19 0.19 0.21 0.21 0.21 0.22 0.19 0.20 0.19 0.22 0.24 0.23 0.23 0.21 0.21
0.76 0.75 0.74 0.73 0.69 0.68 0.62 0.58 0.55 0.53 0.50 0.48 0.46 0.49 0.39 0.29 0.38 0.38 0.36 0.36 0.38 0.39 0.36 0.36 0.31 0.27 0.23 0.21 0.23 0.23 0.22 0.20 0.21 0.21 0.21 0.18 0.19 0.19 0.18 0.21 0.21 0.20 0.20 0.21 0.21
0.75 0.75 0.74 0.72 0.72 0.68 0.65 0.60 0.54 0.52 0.49 0.47 0.44 0.44 0.33 0.31 0.36 0.37 0.37 0.35 0.38 0.37 0.33 0.33 0.32 0.26 0.22 0.19 0.27 0.26 0.22 0.23 0.23 0.22 0.20 0.19 0.15 0.12 0.18 0.18 0.17 0.17 0.19 0.21 0.21
0.75 0.73 0.71 0.69 0.67 0.67 0.66 0.63 0.57 0.53 0.50 0.47 0.42 0.36 0.28 0.36 0.37 0.34 0.36 0.34 0.36 0.37 0.35 0.35 0.30 0.23 0.21 0.22 0.23 0.20 0.22 0.16 0.24 0.20 0.22 0.18 0.12 0.18 0.18 0.15 0.14 0.17 0.18 0.19 0.19
0.77 0.73 0.71 0.68 0.66 0.64 0.60 0.58 0.58 0.53 0.47 0.44 0.37 0.32 0.26 0.35 0.29 0.32 0.34 0.30 0.32 0.34 0.33 0.31 0.27 0.24 0.23 0.20 0.18 0.18 0.13 0.13 0.16 0.21 0.19 0.17 0.14 0.21 0.19 0.16 0.15 0.17 0.17 0.17 0.18
0.81 0.73 0.69 0.68 0.66 0.63 0.58 0.55 0.51 0.49 0.45 0.42 0.35 0.28 0.28 0.25 0.29 0.30 0.33 0.31 0.28 0.28 0.28 0.28 0.26 0.24 0.22 0.18 0.14 0.12 0.11 0.12 0.13 0.17 0.17 0.16 0.16 0.19 0.21 0.18 0.16 0.17 0.18 0.17 0.17
0.86 0.77 0.70 0.67 0.67 0.64 0.56 0.43 0.34 0.31 0.35 0.32 0.30 0.28 0.28 0.30 0.31 0.28 0.30 0.28 0.27 0.25 0.22 0.25 0.21 0.19 0.18 0.18 0.15 0.12 0.11 0.11 0.14 0.16 0.13 0.14 0.14 0.16 0.19 0.21 0.19 0.17 0.17 0.17 0.17
0.83 0.81 0.72 0.68 0.66 0.64 0.57 0.39 0.40 0.43 0.27 0.33 0.30 0.30 0.31 0.31 0.25 0.26 0.30 0.24 0.23 0.21 0.21 0.21 0.18 0.19 0.19 0.18 0.16 0.14 0.12 0.13 0.13 0.15 0.13 0.12 0.11 0.16 0.17 0.18 0.19 0.20 0.18 0.18 0.18
0.72 0.78 0.75 0.69 0.66 0.58 0.47 0.45 0.52 0.45 0.29 0.27 0.29 0.28 0.28 0.29 0.24 0.25 0.27 0.26 0.22 0.20 0.20 0.18 0.23 0.21 0.19 0.18 0.16 0.16 0.14 0.13 0.13 0.15 0.16 0.14 0.14 0.12 0.15 0.17 0.18 0.19 0.20 0.20 0.18
0.58 0.65 0.77 0.72 0.51 0.52 0.44 0.53 0.56 0.50 0.24 0.25 0.24 0.27 0.28 0.29 0.24 0.30 0.30 0.27 0.22 0.20 0.21 0.21 0.23 0.20 0.19 0.18 0.18 0.15 0.19 0.17 0.16 0.15 0.12 0.16 0.10 0.15 0.14 0.14 0.16 0.17 0.17 0.18 0.19
0.56 0.62 0.75 0.76 0.61 0.44 0.53 0.58 0.57 0.41 0.15 0.27 0.27 0.36 0.30 0.26 0.29 0.28 0.33 0.28 0.23 0.22 0.22 0.23 0.21 0.21 0.20 0.20 0.21 0.19 0.22 0.20 0.19 0.17 0.16 0.18 0.15 0.17 0.16 0.15 0.16 0.17 0.17 0.18 0.20
0.64 0.62 0.75 0.77 0.61 0.59 0.62 0.58 0.47 0.23 0.16 0.23 0.28 0.25 0.25 0.27 0.27 0.29 0.29 0.31 0.30 0.25 0.25 0.24 0.26 0.24 0.23 0.24 0.23 0.24 0.21 0.22 0.22 0.20 0.19 0.17 0.15 0.15 0.18 0.18 0.20 0.21 0.21 0.22 0.22
0.64 0.64 0.76 0.81 0.53 0.66 0.60 0.46 0.24 0.20 0.27 0.23 0.24 0.25 0.25 0.24 0.25 0.26 0.25 0.24 0.23 0.19 0.20 0.24 0.24 0.25 0.26 0.24 0.27 0.25 0.23 0.20 0.20 0.19 0.17 0.21 0.16 0.19 0.22 0.22 0.22 0.23 0.22 0.22 0.22
0.64 0.67 0.79 0.78 0.76 0.67 0.53 0.35 0.21 0.24 0.23 0.30 0.28 0.27 0.23 0.26 0.25 0.25 0.25 0.23 0.26 0.25 0.22 0.21 0.21 0.25 0.27 0.26 0.24 0.24 0.24 0.21 0.17 0.18 0.18 0.22 0.18 0.22 0.23 0.24 0.23 0.26 0.27 0.26 0.28
0.67 0.72 0.73 0.75 0.78 0.65 0.43 0.26 0.24 0.25 0.29 0.28 0.29 0.25 0.24 0.25 0.26 0.26 0.25 0.26 0.28 0.28 0.24 0.23 0.23 0.28 0.28 0.29 0.28 0.27 0.26 0.28 0.25 0.27 0.23 0.23 0.24 0.27 0.26 0.26 0.28 0.29 0.28 0.29 0.30
0.68 0.65 0.67 0.78 0.79 0.58 0.38 0.29 0.30 0.30 0.32 0.32 0.26 0.28 0.24 0.25 0.24 0.26 0.28 0.33 0.31 0.32 0.33 0.30 0.26 0.31 0.32 0.33 0.33 0.31 0.32 0.28 0.29 0.24 0.23 0.25 0.26 0.25 0.27 0.29 0.30 0.30 0.30 0.32 0.34
0.67 0.53 0.72 0.79 0.70 0.46 0.31 0.32 0.34 0.34 0.35 0.32 0.30 0.28 0.29 0.28 0.28 0.28 0.30 0.34 0.35 0.35 0.35 0.33 0.30 0.31 0.33 0.31 0.31 0.31 0.30 0.30 0.31 0.29 0.26 0.25 0.28 0.33 0.30 0.32 0.32 0.33 0.35 0.35 0.37
0.65 0.44 0.71 0.75 0.42 0.40 0.33 0.35 0.40 0.33 0.36 0.35 0.35 0.32 0.29 0.32 0.29 0.30 0.30 0.34 0.39 0.38 0.33 0.36 0.34 0.29 0.31 0.35 0.36 0.34 0.31 0.32 0.29 0.31 0.30 0.29 0.30 0.37 0.34 0.36 0.38 0.38 0.39 0.40 0.39
0.55 0.55 0.73 0.65 0.34 0.35 0.40 0.40 0.38 0.34 0.33 0.33 0.33 0.35 0.35 0.32 0.29 0.32 0.33 0.39 0.40 0.38 0.36 0.37 0.33 0.28 0.29 0.32 0.34 0.31 0.32 0.33 0.35 0.35 0.31 0.29 0.33 0.42 0.39 0.43 0.45 0.45 0.45 0.45 0.44
0.57 0.44 0.58 0.58 0.49 0.41 0.38 0.37 0.34 0.38 0.36 0.36 0.35 0.37 0.34 0.32 0.35 0.33 0.33 0.38 0.40 0.39 0.39 0.39 0.35 0.30 0.27 0.30 0.33 0.31 0.33 0.34 0.34 0.31 0.33 0.33 0.36 0.43 0.45 0.46 0.48 0.49 0.49 0.48 0.47
0.62 0.44 0.52 0.42 0.41 0.43 0.41 0.38 0.34 0.32 0.37 0.37 0.34 0.34 0.32 0.30 0.32 0.32 0.35 0.36 0.39 0.40 0.38 0.38 0.31 0.33 0.34 0.34 0.34 0.34 0.34 0.36 0.34 0.35 0.31 0.34 0.35 0.41 0.45 0.46 0.47 0.46 0.46 0.45 0.44
0.59 0.54 0.61 0.52 0.49 0.44 0.41 0.38 0.35 0.35 0.35 0.32 0.32 0.36 0.36 0.33 0.33 0.31 0.35 0.35 0.34 0.40 0.37 0.39 0.32 0.34 0.31 0.35 0.35 0.33 0.36 0.37 0.37 0.37 0.36 0.37 0.37 0.45 0.47 0.46 0.45 0.46 0.47 0.46 0.45
0.82 0.76 0.62 0.56 0.51 0.46 0.42 0.40 0.40 0.39 0.41 0.38 0.38 0.37 0.35 0.37 0.40 0.42 0.42 0.42 0.42 0.38 0.36 0.36 0.34 0.32 0.28 0.34 0.33 0.29 0.36 0.37 0.36 0.38 0.37 0.34 0.40 0.45 0.44 0.45 0.47 0.50 0.50 0.48 0.48

GFSSW_prec_pwat_312.txt.gz
Precipitable_Water
0.67 0.64 0.63 0.61 0.58 0.56 0.54 0.54 0.52 0.51 0.50 0.49 0.48 0.46 0.45 0.45 0.42 0.36 0.26 0.32 0.42 0.52 0.60 0.65 0.61 0.48 0.44 0.32 0.33 0.40 0.37 0.30 0.30 0.27 0.35 0.38 0.26 0.30 0.30 0.24 0.26 0.26 0.24 0.28 0.33
0.71 0.68 0.65 0.62 0.59 0.57 0.55 0.54 0.53 0.52 0.50 0.49 0.48 0.45 0.44 0.46 0.39 0.31 0.34 0.40 0.45 0.56 0.60 0.48 0.43 0.44 0.37 0.32 0.26 0.34 0.37 0.33 0.35 0.35 0.31 0.29 0.27 0.26 0.22 0.22 0.21 0.21 0.26 0.30 0.31
0.73 0.71 0.68 0.64 0.60 0.58 0.56 0.55 0.54 0.52 0.50 0.48 0.47 0.45 0.45 0.45 0.36 0.31 0.38 0.38 0.45 0.53 0.54 0.50 0.48 0.42 0.34 0.29 0.22 0.27 0.29 0.30 0.24 0.27 0.28 0.26 0.21 0.26 0.19 0.20 0.24 0.22 0.22 0.25 0.26
0.75 0.72 0.70 0.66 0.63 0.59 0.57 0.56 0.54 0.52 0.49 0.48 0.47 0.45 0.46 0.45 0.27 0.37 0.37 0.35 0.42 0.48 0.45 0.44 0.42 0.34 0.30 0.24 0.21 0.22 0.20 0.20 0.23 0.21 0.18 0.18 0.23 0.20 0.20 0.24 0.30 0.27 0.25 0.25 0.23
0.76 0.74 0.71 0.69 0.65 0.62 0.59 0.57 0.55 0.53 0.49 0.47 0.47 0.47 0.41 0.35 0.32 0.37 0.37 0.37 0.40 0.40 0.36 0.36 0.34 0.30 0.26 0.24 0.23 0.20 0.19 0.18 0.20 0.19 0.19 0.21 0.17 0.18 0.19 0.24 0.25 0.25 0.22 0.22 0.22
0.77 0.76 0.74 0.70 0.68 0.63 0.60 0.57 0.56 0.53 0.49 0.47 0.46 0.45 0.37 0.30 0.42 0.39 0.36 0.35 0.37 0.38 0.36 0.35 0.29 0.26 0.24 0.20 0.23 0.23 0.21 0.20 0.21 0.20 0.20 0.16 0.17 0.20 0.19 0.22 0.20 0.20 0.20 0.20 0.21
0.77 0.78 0.76 0.73 0.69 0.64 0.61 0.57 0.54 0.51 0.48 0.46 0.46 0.41 0.34 0.32 0.38 0.37 0.37 0.34 0.36 0.36 0.33 0.32 0.29 0.25 0.24 0.20 0.25 0.25 0.21 0.25 0.24 0.22 0.18 0.18 0.18 0.13 0.19 0.19 0.18 0.17 0.19 0.20 0.20
0.76 0.75 0.75 0.73 0.71 0.67 0.62 0.58 0.54 0.50 0.47 0.46 0.42 0.37 0.28 0.38 0.37 0.34 0.36 0.34 0.35 0.35 0.33 0.32 0.28 0.23 0.21 0.21 0.22 0.20 0.26 0.18 0.25 0.21 0.21 0.17 0.11 0.20 0.20 0.16 0.16 0.16 0.17 0.19 0.20
0.77 0.74 0.70 0.69 0.68 0.66 0.63 0.59 0.54 0.51 0.48 0.43 0.36 0.32 0.27 0.36 0.29 0.32 0.33 0.31 0.32 0.32 0.31 0.28 0.26 0.24 0.23 0.23 0.21 0.21 0.13 0.14 0.18 0.23 0.20 0.17 0.14 0.20 0.22 0.18 0.16 0.16 0.17 0.18 0.19
0.81 0.75 0.70 0.67 0.66 0.64 0.59 0.56 0.56 0.49 0.42 0.44 0.37 0.27 0.29 0.25 0.29 0.30 0.32 0.30 0.28 0.28 0.29 0.27 0.26 0.25 0.25 0.18 0.14 0.15 0.10 0.12 0.13 0.19 0.17 0.15 0.14 0.19 0.23 0.21 0.19 0.17 0.18 0.17 0.18
0.86 0.78 0.70 0.66 0.65 0.63 0.56 0.44 0.35 0.32 0.35 0.31 0.30 0.27 0.29 0.31 0.31 0.27 0.29 0.26 0.26 0.24 0.22 0.26 0.22 0.21 0.21 0.17 0.15 0.13 0.11 0.11 0.16 0.17 0.13 0.12 0.13 0.15 0.19 0.21 0.20 0.20 0.18 0.18 0.18
0.86 0.82 0.72 0.65 0.64 0.63 0.58 0.43 0.43 0.48 0.29 0.34 0.33 0.30 0.31 0.30 0.24 0.25 0.28 0.23 0.22 0.21 0.23 0.23 0.21 0.22 0.18 0.17 0.16 0.15 0.13 0.14 0.15 0.17 0.14 0.13 0.11 0.15 0.18 0.19 0.21 0.21 0.20 0.20 0.20
0.76 0.81 0.75 0.66 0.62 0.56 0.46 0.44 0.56 0.47 0.29 0.30 0.29 0.28 0.28 0.28 0.24 0.24 0.25 0.24 0.22 0.21 0.21 0.19 0.24 0.23 0.18 0.18 0.16 0.16 0.16 0.14 0.13 0.16 0.19 0.17 0.15 0.16 0.16 0.16 0.18 0.21 0.23 0.22 0.21
0.68 0.67 0.73 0.70 0.49 0.47 0.43 0.53 0.53 0.49 0.23 0.24 0.23 0.26 0.28 0.29 0.23 0.30 0.29 0.27 0.22 0.20 0.21 0.21 0.24 0.19 0.19 0.19 0.19 0.15 0.22 0.19 0.17 0.16 0.13 0.19 0.11 0.17 0.19 0.17 0.17 0.18 0.19 0.21 0.22
0.59 0.55 0.68 0.74 0.60 0.45 0.52 0.56 0.55 0.41 0.15 0.29 0.27 0.34 0.28 0.25 0.30 0.26 0.31 0.26 0.23 0.23 0.21 0.24 0.23 0.20 0.20 0.21 0.21 0.18 0.22 0.20 0.20 0.18 0.19 0.19 0.18 0.20 0.22 0.18 0.19 0.20 0.20 0.20 0.23
0.54 0.55 0.65 0.70 0.65 0.61 0.61 0.55 0.47 0.23 0.15 0.26 0.28 0.24 0.22 0.25 0.26 0.29 0.27 0.29 0.30 0.23 0.23 0.23 0.26 0.24 0.23 0.23 0.23 0.24 0.22 0.26 0.25 0.25 0.21 0.21 0.16 0.21 0.22 0.23 0.23 0.23 0.23 0.25 0.25
0.59 0.60 0.59 0.81 0.51 0.63 0.59 0.45 0.23 0.18 0.30 0.24 0.22 0.24 0.22 0.22 0.23 0.24 0.23 0.22 0.20 0.18 0.19 0.24 0.23 0.25 0.25 0.23 0.28 0.25 0.24 0.21 0.22 0.22 0.20 0.23 0.19 0.21 0.26 0.25 0.25 0.25 0.26 0.26 0.26
0.63 0.60 0.58 0.80 0.80 0.68 0.52 0.33 0.20 0.24 0.24 0.28 0.26 0.24 0.21 0.25 0.23 0.24 0.24 0.22 0.25 0.25 0.22 0.20 0.21 0.25 0.27 0.25 0.24 0.24 0.26 0.21 0.17 0.19 0.20 0.24 0.20 0.26 0.30 0.28 0.29 0.31 0.32 0.31 0.31
0.64 0.56 0.62 0.75 0.82 0.67 0.43 0.25 0.21 0.25 0.29 0.26 0.27 0.22 0.23 0.26 0.25 0.24 0.23 0.24 0.27 0.27 0.23 0.23 0.23 0.27 0.28 0.29 0.29 0.28 0.27 0.29 0.25 0.28 0.27 0.28 0.29 0.33 0.31 0.32 0.34 0.34 0.34 0.34 0.37
0.59 0.59 0.57 0.78 0.79 0.61 0.39 0.29 0.28 0.32 0.31 0.29 0.23 0.25 0.21 0.23 0.22 0.23 0.24 0.29 0.30 0.31 0.32 0.30 0.25 0.30 0.32 0.33 0.34 0.32 0.33 0.29 0.31 0.24 0.22 0.27 0.28 0.28 0.31 0.31 0.35 0.38 0.38 0.37 0.40
0.63 0.50 0.67 0.81 0.74 0.50 0.32 0.32 0.34 0.37 0.32 0.29 0.28 0.27 0.28 0.26 0.24 0.24 0.27 0.32 0.34 0.32 0.33 0.32 0.28 0.31 0.31 0.30 0.30 0.30 0.29 0.29 0.31 0.29 0.26 0.24 0.28 0.36 0.34 0.34 0.34 0.38 0.43 0.44 0.43
0.63 0.40 0.77 0.76 0.44 0.42 0.33 0.36 0.40 0.38 0.37 0.34 0.35 0.32 0.29 0.31 0.26 0.28 0.28 0.33 0.37 0.36 0.31 0.34 0.34 0.30 0.30 0.35 0.35 0.33 0.30 0.29 0.27 0.29 0.29 0.29 0.28 0.38 0.36 0.35 0.40 0.45 0.48 0.48 0.47
0.55 0.55 0.80 0.68 0.33 0.34 0.37 0.34 0.40 0.38 0.36 0.32 0.33 0.35 0.33 0.31 0.28 0.30 0.33 0.38 0.37 0.36 0.33 0.35 0.31 0.27 0.29 0.32 0.33 0.30 0.30 0.30 0.31 0.32 0.28 0.26 0.28 0.39 0.41 0.43 0.46 0.47 0.48 0.49 0.48
0.62 0.45 0.58 0.61 0.50 0.38 0.36 0.34 0.35 0.41 0.38 0.35 0.34 0.36 0.33 0.31 0.34 0.32 0.33 0.36 0.38 0.38 0.39 0.37 0.34 0.31 0.27 0.30 0.34 0.28 0.30 0.30 0.30 0.27 0.28 0.29 0.31 0.37 0.40 0.41 0.44 0.44 0.43 0.44 0.45
0.67 0.47 0.51 0.41 0.41 0.42 0.41 0.39 0.36 0.35 0.39 0.37 0.33 0.33 0.31 0.29 0.31 0.31 0.36 0.35 0.37 0.39 0.37 0.36 0.29 0.31 0.32 0.33 0.33 0.32 0.32 0.33 0.31 0.32 0.28 0.31 0.30 0.35 0.38 0.41 0.41 0.43 0.46 0.48 0.48
0.61 0.55 0.56 0.48 0.46 0.42 0.43 0.39 0.38 0.39 0.36 0.33 0.31 0.34 0.34 0.31 0.32 0.30 0.35 0.34 0.32 0.37 0.35 0.37 0.30 0.33 0.30 0.34 0.33 0.31 0.34 0.34 0.34 0.34 0.32 0.31 0.30 0.38 0.41 0.43 0.42 0.42 0.48 0.48 0.47
0.72 0.79 0.66 0.50 0.47 0.41 0.40 0.41 0.41 0.43 0.42 0.39 0.36 0.35 0.32 0.34 0.40 0.40 0.41 0.41 0.39 0.35 0.34 0.34 0.32 0.31 0.26 0.33 0.32 0.28 0.33 0.34 0.33 0.34 0.33 0.28 0.34 0.40 0.40 0.41 0.40 0.44 0.49 0.49 0.49

GFSSW_prec_pwat_315.txt.gz
Precipitable_Water
0.70 0.67 0.65 0.62 0.59 0.57 0.55 0.54 0.52 0.50 0.48 0.48 0.48 0.46 0.46 0.44 0.42 0.37 0.24 0.29 0.39 0.52 0.66 0.62 0.57 0.54 0.46 0.32 0.31 0.42 0.38 0.29 0.29 0.28 0.31 0.39 0.30 0.30 0.30 0.24 0.25 0.25 0.23 0.27 0.33
0.72 0.69 0.67 0.64 0.61 0.58 0.55 0.54 0.53 0.51 0.48 0.48 0.48 0.46 0.45 0.46 0.38 0.31 0.32 0.38 0.44 0.54 0.53 0.46 0.39 0.43 0.34 0.28 0.27 0.37 0.35 0.32 0.37 0.33 0.30 0.31 0.26 0.25 0.23 0.20 0.19 0.20 0.25 0.29 0.30
0.72 0.71 0.68 0.65 0.62 0.59 0.56 0.54 0.53 0.51 0.48 0.48 0.49 0.46 0.44 0.46 0.35 0.31 0.36 0.35 0.41 0.48 0.50 0.51 0.49 0.42 0.33 0.28 0.21 0.31 0.25 0.32 0.30 0.29 0.29 0.24 0.21 0.25 0.18 0.16 0.20 0.21 0.24 0.27 0.26
0.73 0.70 0.69 0.67 0.63 0.59 0.57 0.55 0.53 0.51 0.49 0.48 0.48 0.46 0.45 0.45 0.26 0.34 0.35 0.33 0.39 0.45 0.44 0.41 0.40 0.32 0.28 0.20 0.21 0.18 0.21 0.20 0.21 0.19 0.18 0.17 0.20 0.19 0.19 0.18 0.27 0.27 0.27 0.26 0.24
0.76 0.71 0.69 0.67 0.64 0.60 0.58 0.56 0.53 0.52 0.49 0.47 0.47 0.46 0.40 0.34 0.33 0.40 0.36 0.36 0.39 0.40 0.34 0.35 0.30 0.29 0.25 0.21 0.22 0.19 0.18 0.17 0.19 0.18 0.18 0.19 0.17 0.17 0.17 0.23 0.25 0.27 0.26 0.24 0.23
0.78 0.76 0.71 0.66 0.64 0.62 0.59 0.56 0.53 0.52 0.48 0.46 0.47 0.44 0.36 0.30 0.41 0.42 0.35 0.34 0.34 0.38 0.34 0.32 0.27 0.28 0.24 0.20 0.22 0.23 0.20 0.21 0.20 0.21 0.19 0.16 0.16 0.19 0.17 0.22 0.22 0.21 0.21 0.22 0.22
0.79 0.77 0.75 0.69 0.64 0.63 0.61 0.57 0.53 0.51 0.48 0.47 0.47 0.38 0.34 0.31 0.40 0.37 0.36 0.32 0.34 0.34 0.31 0.31 0.27 0.24 0.24 0.19 0.24 0.24 0.21 0.26 0.24 0.22 0.18 0.19 0.16 0.14 0.17 0.20 0.18 0.18 0.19 0.20 0.21
0.80 0.79 0.77 0.73 0.68 0.63 0.61 0.56 0.52 0.48 0.47 0.47 0.45 0.35 0.27 0.39 0.39 0.34 0.35 0.33 0.33 0.33 0.30 0.29 0.26 0.22 0.21 0.24 0.26 0.22 0.24 0.17 0.22 0.23 0.21 0.18 0.08 0.19 0.21 0.18 0.17 0.18 0.19 0.18 0.20
0.81 0.79 0.75 0.73 0.71 0.66 0.60 0.56 0.51 0.49 0.47 0.45 0.35 0.30 0.25 0.37 0.30 0.33 0.34 0.30 0.30 0.30 0.29 0.28 0.27 0.27 0.27 0.23 0.21 0.21 0.12 0.13 0.16 0.23 0.20 0.17 0.11 0.19 0.23 0.21 0.18 0.19 0.19 0.19 0.20
0.85 0.79 0.74 0.69 0.68 0.65 0.60 0.57 0.52 0.47 0.42 0.43 0.40 0.26 0.28 0.26 0.29 0.31 0.31 0.30 0.27 0.26 0.29 0.28 0.29 0.24 0.23 0.15 0.12 0.14 0.11 0.10 0.12 0.18 0.19 0.15 0.13 0.17 0.22 0.23 0.21 0.21 0.20 0.19 0.20
0.89 0.80 0.74 0.69 0.65 0.64 0.56 0.47 0.34 0.31 0.36 0.26 0.27 0.25 0.28 0.32 0.31 0.27 0.29 0.25 0.25 0.25 0.20 0.27 0.22 0.18 0.19 0.17 0.15 0.14 0.12 0.11 0.15 0.18 0.15 0.12 0.12 0.15 0.18 0.21 0.21 0.21 0.22 0.21 0.21
0.85 0.84 0.76 0.68 0.62 0.62 0.60 0.43 0.43 0.47 0.27 0.33 0.34 0.30 0.30 0.30 0.22 0.25 0.27 0.21 0.21 0.19 0.22 0.21 0.19 0.22 0.19 0.18 0.16 0.16 0.14 0.14 0.16 0.17 0.16 0.15 0.14 0.16 0.17 0.18 0.20 0.21 0.22 0.23 0.23
0.76 0.81 0.79 0.69 0.62 0.55 0.45 0.45 0.58 0.52 0.29 0.31 0.32 0.29 0.28 0.29 0.23 0.23 0.24 0.23 0.20 0.19 0.19 0.18 0.22 0.24 0.19 0.17 0.15 0.15 0.15 0.15 0.15 0.18 0.20 0.17 0.17 0.18 0.20 0.20 0.19 0.22 0.24 0.25 0.24
0.70 0.74 0.76 0.70 0.50 0.49 0.41 0.49 0.56 0.50 0.19 0.24 0.25 0.26 0.28 0.28 0.22 0.29 0.28 0.25 0.21 0.19 0.20 0.19 0.23 0.19 0.18 0.18 0.19 0.14 0.21 0.19 0.18 0.16 0.13 0.20 0.11 0.20 0.22 0.21 0.20 0.19 0.20 0.23 0.25
0.69 0.66 0.64 0.70 0.56 0.44 0.48 0.54 0.53 0.40 0.10 0.27 0.27 0.33 0.28 0.24 0.27 0.25 0.30 0.25 0.21 0.20 0.20 0.22 0.22 0.20 0.18 0.20 0.21 0.17 0.22 0.21 0.22 0.19 0.21 0.20 0.17 0.20 0.24 0.22 0.21 0.22 0.23 0.24 0.27
0.71 0.59 0.54 0.65 0.63 0.59 0.63 0.57 0.45 0.20 0.11 0.25 0.28 0.23 0.21 0.23 0.26 0.29 0.24 0.28 0.28 0.23 0.22 0.22 0.26 0.23 0.22 0.23 0.23 0.24 0.24 0.26 0.27 0.29 0.20 0.22 0.20 0.22 0.24 0.24 0.25 0.26 0.27 0.28 0.29
0.66 0.52 0.52 0.71 0.52 0.68 0.64 0.43 0.20 0.15 0.27 0.25 0.24 0.23 0.21 0.19 0.22 0.23 0.22 0.19 0.17 0.15 0.16 0.22 0.22 0.24 0.25 0.22 0.27 0.25 0.26 0.20 0.21 0.21 0.19 0.26 0.22 0.23 0.28 0.29 0.30 0.30 0.31 0.32 0.31
0.56 0.57 0.55 0.60 0.78 0.70 0.54 0.33 0.15 0.20 0.22 0.29 0.25 0.23 0.18 0.22 0.21 0.22 0.22 0.19 0.22 0.23 0.21 0.18 0.19 0.24 0.26 0.24 0.23 0.24 0.26 0.21 0.18 0.19 0.20 0.26 0.21 0.27 0.31 0.31 0.33 0.35 0.36 0.36 0.35
0.59 0.56 0.51 0.54 0.80 0.68 0.40 0.22 0.18 0.23 0.26 0.26 0.26 0.21 0.20 0.23 0.23 0.22 0.21 0.21 0.23 0.25 0.20 0.21 0.21 0.28 0.27 0.28 0.28 0.27 0.25 0.29 0.25 0.29 0.24 0.27 0.30 0.33 0.32 0.32 0.33 0.36 0.40 0.41 0.41
0.53 0.55 0.46 0.65 0.83 0.60 0.35 0.24 0.24 0.29 0.30 0.29 0.21 0.23 0.18 0.21 0.21 0.22 0.21 0.23 0.25 0.29 0.29 0.28 0.24 0.29 0.29 0.31 0.32 0.31 0.32 0.27 0.29 0.22 0.20 0.25 0.27 0.28 0.32 0.33 0.34 0.35 0.42 0.45 0.46
0.54 0.47 0.51 0.73 0.77 0.50 0.29 0.29 0.29 0.34 0.33 0.28 0.25 0.24 0.23 0.22 0.23 0.22 0.22 0.27 0.30 0.31 0.32 0.30 0.27 0.28 0.29 0.27 0.28 0.28 0.27 0.27 0.28 0.27 0.22 0.20 0.24 0.33 0.32 0.33 0.33 0.39 0.43 0.45 0.46
0.57 0.40 0.69 0.73 0.43 0.44 0.34 0.35 0.35 0.34 0.37 0.32 0.30 0.30 0.27 0.27 0.25 0.24 0.24 0.29 0.36 0.34 0.29 0.32 0.29 0.26 0.29 0.34 0.34 0.32 0.29 0.28 0.25 0.24 0.25 0.25 0.24 0.34 0.33 0.38 0.40 0.41 0.43 0.44 0.43
0.52 0.55 0.83 0.67 0.32 0.35 0.38 0.36 0.37 0.36 0.36 0.34 0.29 0.33 0.33 0.30 0.26 0.28 0.31 0.37 0.37 0.33 0.30 0.33 0.29 0.26 0.28 0.32 0.33 0.29 0.29 0.29 0.30 0.31 0.25 0.22 0.24 0.37 0.33 0.37 0.40 0.41 0.41 0.40 0.45
0.56 0.42 0.65 0.66 0.50 0.37 0.35 0.34 0.31 0.41 0.38 0.38 0.34 0.34 0.33 0.31 0.33 0.29 0.32 0.36 0.38 0.36 0.37 0.35 0.31 0.28 0.25 0.29 0.32 0.27 0.28 0.28 0.28 0.24 0.25 0.26 0.28 0.33 0.32 0.34 0.39 0.40 0.39 0.45 0.47
0.56 0.45 0.54 0.45 0.44 0.42 0.38 0.35 0.31 0.31 0.39 0.39 0.35 0.33 0.31 0.30 0.30 0.31 0.35 0.35 0.37 0.38 0.37 0.34 0.27 0.31 0.32 0.33 0.33 0.31 0.30 0.30 0.28 0.29 0.25 0.28 0.29 0.34 0.35 0.37 0.38 0.40 0.41 0.45 0.47
0.49 0.51 0.54 0.48 0.52 0.43 0.42 0.36 0.33 0.33 0.35 0.34 0.33 0.34 0.33 0.29 0.30 0.30 0.33 0.33 0.31 0.35 0.34 0.36 0.29 0.31 0.29 0.31 0.32 0.30 0.32 0.32 0.32 0.30 0.29 0.30 0.28 0.36 0.38 0.40 0.40 0.41 0.41 0.45 0.47
0.55 0.67 0.61 0.46 0.45 0.43 0.37 0.38 0.38 0.41 0.41 0.39 0.37 0.35 0.32 0.32 0.36 0.37 0.39 0.38 0.36 0.33 0.33 0.32 0.31 0.29 0.25 0.31 0.31 0.25 0.31 0.32 0.32 0.33 0.32 0.27 0.32 0.37 0.37 0.38 0.41 0.43 0.43 0.47 0.50